LiveATC.Net - Listen to live air traffic control over the Internet!


ICAO: K1H0  IATA: 1H0   Airport: Creve Coeur Airport
City: St. Louis   State/Province: Missouri
Country: United States   Continent: North America
KSTL METAR Weather: KSTL 171851Z 01005KT 10SM FEW045 29/18 A3009 RMK AO2 SLP177 T02940183
K1H0 Flight Activity (FlightAware)
K1H0 Webcam:  (Airport Webcams) 
K1H0 Airport Info   (iFlightPlanner)
K1H0 VFR Sectional Chart   (iFlightPlanner) 
K1H0 IFR Low Chart   (iFlightPlanner) 

K1H0 CTAF/Unicom
Feed Status: UP   Listeners: 0
Listen in your browser - HTML5 player (in browser, HTML5)
Click here to listen with your own player (launches your MP3 player)
Archive Access: K1H0 CTAF/Unicom
FacilityFrequency
Creve Coeur CTAF122.800

NOTICE

Unauthorized use prohibited. See LiveATC.net Terms of Service


Airport/ARTCC Code
Frequency Search
(e.g., 124.400, 128.75)
Site-wide search
 


Browse Feeds
Top 50 Feeds
HF Oceanic Feeds
Coverage Map
Bad Weather Areas

LiveATC FAQ
Offer LiveATC feed
Contact LiveATC.net
Press Inquiries

LiveATC on iPhone
LiveATC on Android

Windows Phone
Windows 8/10

LiveATC Mobile
(Mobile browser)

ATC Audio Archives
Interesting Recordings

LiveATC Forums


Home Page
About LiveATC.net
Make a Donation
Terms of Use
Privacy Policy

Canadian Air Freqs

AIRMETs/SIGMETs

FAA Airport Status
NAS Status
Arrival Demand


Server Software By:
Icecast.org
Liquidsoap